Lid_Strength_Index
-0 -0 -0 -0 -0 -1 -1 -1 -1 -1 -1 -1 -1 -1 -1 -1 -0 3 7 4 3 -1 0 7 8 8 8 9 10 13 14 16 15 14 13 12 12 12 12 11 12 11 11 10 7
-0 -0 -0 -0 -0 -0 -1 -1 -1 -1 -1 -1 -1 -1 -1 -1 3 6 1 -2 -1 -1 7 8 10 9 10 10 11 13 15 14 13 13 13 12 12 11 12 12 12 11 11 9 8
-0 -0 -0 0 -0 -0 -0 -0 -1 -1 -1 -1 -1 -1 -1 1 7 7 -1 -1 -1 2 6 7 8 10 11 9 10 14 15 13 12 11 11 11 13 11 12 13 11 11 11 9 8
-0 -0 0 0 0 -0 -0 -0 -0 -0 -1 -1 -1 -1 -1 5 13 5 -0 -1 -1 4 6 8 9 11 12 11 11 12 13 13 10 10 11 12 11 12 12 11 11 11 10 10 9
-1 -0 0 0 0 0 -0 -0 -0 -0 -0 -1 -1 -1 4 9 8 4 -0 1 5 6 8 9 11 11 13 11 12 12 13 11 10 11 11 11 12 12 12 11 11 11 10 10 9
0 0 -0 -0 -0 -0 -0 -0 -0 -0 -0 -0 -1 -0 6 12 4 4 5 6 6 7 8 9 10 10 11 12 13 12 11 11 11 11 11 12 11 11 11 12 12 11 11 11 10
-0 -0 0 -0 -0 -0 -0 -0 -0 -0 -0 -1 -1 3 7 9 4 6 6 7 7 7 8 8 8 10 11 12 11 11 13 12 13 12 12 11 13 12 11 12 12 12 12 12 11
1 0 -0 0 0 -0 -0 -0 -0 -0 -0 -1 -1 6 10 5 4 6 6 7 7 7 7 7 8 9 10 11 11 13 14 15 13 12 12 13 15 12 12 12 12 12 13 12 11
1 1 1 0 0 0 -0 -0 -0 -0 -1 -1 5 7 11 4 6 5 7 8 7 7 7 6 8 11 11 13 15 15 17 16 14 12 13 14 15 13 13 13 12 13 13 13 13
1 1 1 1 0 0 -0 -0 0 0 1 2 4 11 9 9 6 6 7 7 8 9 9 9 11 13 14 14 17 16 17 16 16 14 14 15 14 13 12 13 13 13 13 13 13
1 1 1 2 1 1 2 6 9 9 7 11 11 12 8 7 6 7 7 8 9 10 13 12 14 15 13 14 15 15 16 16 15 13 14 14 14 13 12 14 13 13 13 13 12
1 1 1 1 1 1 4 8 9 7 9 7 8 7 6 6 9 7 7 9 11 13 13 14 15 12 12 13 14 15 16 16 14 13 14 14 14 12 13 13 12 11 12 12 12
2 2 1 1 1 2 5 6 4 5 10 10 7 7 7 7 8 8 7 10 12 13 13 14 13 11 12 14 14 15 16 16 14 14 14 16 16 15 13 13 12 12 11 11 11
1 1 1 1 3 3 5 3 3 6 15 13 11 8 8 7 10 7 7 9 12 12 13 13 12 12 13 14 13 16 13 14 14 15 18 16 19 16 14 13 13 11 12 11 11
1 1 0 1 3 5 4 2 3 7 20 12 11 7 8 10 10 9 8 9 12 12 11 13 13 13 13 13 12 14 12 14 15 16 17 18 18 17 15 14 12 11 11 11 11
0 1 1 1 1 2 2 2 4 13 19 14 10 11 11 10 11 10 10 9 10 11 12 13 12 12 12 12 11 12 13 14 15 16 19 17 17 16 16 13 13 11 11 11 12
0 0 1 2 3 0 2 4 13 17 11 13 13 12 12 13 13 12 12 13 13 15 15 14 13 12 11 13 12 13 14 18 20 21 19 18 18 15 15 13 12 11 11 13 13
0 0 2 1 -0 1 3 9 17 13 13 11 12 12 13 12 13 13 13 14 12 14 16 15 17 13 12 12 13 14 14 18 22 22 20 18 19 16 13 12 12 13 12 13 14
1 4 2 2 1 1 6 15 14 13 11 12 11 13 14 13 13 14 15 15 12 12 15 16 16 13 13 12 11 14 15 13 16 24 21 18 17 14 13 13 13 13 13 13 14
4 5 5 0 0 3 9 13 12 9 9 9 13 12 15 14 13 14 15 14 13 12 12 14 16 14 14 12 13 13 12 16 17 22 24 20 19 17 14 14 13 13 12 13 14
5 7 4 0 0 6 13 12 10 8 8 10 11 12 13 14 13 15 14 13 13 13 11 12 14 17 15 15 15 14 15 16 15 18 21 23 18 15 13 13 13 12 13 13 13
7 10 4 0 8 9 11 10 7 9 7 8 9 10 11 13 14 14 14 13 11 11 13 12 14 16 16 15 15 16 16 15 18 20 20 20 17 14 13 13 13 12 12 13 14
9 10 5 2 11 11 9 9 8 9 9 9 10 9 9 11 13 13 13 11 10 10 12 11 14 19 17 16 16 17 15 15 16 18 19 21 16 15 15 14 13 13 13 13 14
8 13 10 7 7 9 10 10 11 8 8 8 9 9 10 11 10 12 12 11 10 9 8 8 12 15 17 17 15 18 17 15 14 17 16 17 15 14 14 14 13 13 13 13 14
7 11 10 13 12 11 9 10 11 11 8 8 10 10 11 13 12 13 11 11 10 9 9 9 15 13 13 14 15 15 16 15 15 14 17 14 15 13 12 12 12 12 13 13 13
8 10 9 12 10 11 10 10 11 10 10 11 11 9 9 12 11 13 11 11 11 10 10 9 15 13 15 13 14 15 15 15 14 14 14 14 14 11 11 12 13 12 11 12 13
6 6 7 10 11 12 12 11 11 9 8 8 9 10 11 9 8 7 7 8 9 10 11 12 13 15 17 14 14 17 14 13 13 13 13 15 13 11 10 11 10 10 12 12 12